FW9818 Weather Reports


time (UTC)temp
C
wind
direction
speed
KPH
gust
KPH
rain 1hr
cm
rain 24hr
cm
rain mn
cm
humidity
%
barometer
mb
20260510091519 16 23 8.0 17.7 0.00 0.00 0.00 56 1013.4
20260510090005 16 68 6.4 22.5 0.00 0.00 0.00 58 1013.6
20260510084628 15 76 8.0 19.3 0.00 0.00 0.00 59 1013.7
20260510083127 15 1 6.4 14.5 0.00 0.00 0.00 61 1013.7
20260510081626 15 50 8.0 17.7 0.00 0.00 0.00 63 1013.7
20260510080125 14 70 8.0 16.1 0.00 0.00 0.00 66 1013.8
20260510074611 13 23 6.4 19.3 0.00 0.00 0.00 68 1014.0
20260510073107 13 18 8.0 19.3 0.00 0.00 0.00 69 1014.1
20260510071601 12 18 8.0 17.7 0.00 0.00 0.00 70 1014.2
20260510070019 12 57 4.8 11.3 0.00 0.00 0.00 72 1014.3
20260510064555 11 108 4.8 11.3 0.00 0.00 0.00 75 1014.3
20260510063020 11 5 9.7 17.7 0.00 0.00 0.00 76 1014.5
20260510061549 11 23 4.8 11.3 0.00 0.00 0.00 77 1014.5
20260510060055 11 13 1.6 12.9 0.00 0.00 0.00 78 1014.3
20260510054516 10 31 6.4 17.7 0.00 0.00 0.00 79 1014.2
20260510053007 10 52 4.8 16.1 0.00 0.00 0.00 79 1014.2
20260510051524 10 70 4.8 9.7 0.00 0.00 0.00 79 1014.3
20260510050138 10 13 3.2 9.7 0.00 0.00 0.00 78 1014.4
20260510044628 10 358 1.6 8.0 0.00 0.00 0.00 78 1014.4
20260510043124 10 48 1.6 6.4 0.00 0.00 0.00 79 1014.3
20260510041503 9 77 3.2 8.0 0.00 0.00 0.00 79 1014.2
20260510040035 9 56 1.6 4.8 0.00 0.00 0.00 79 1014.2
20260510034559 9 46 0.0 4.8 0.00 0.00 0.00 79 1014.2
20260510033113 9 35 1.6 4.8 0.00 0.00 0.00 78 1014.2
20260510031609 9 27 1.6 4.8 0.00 0.00 0.00 77 1014.4
20260510030125 9 18 0.0 3.2 0.00 0.00 0.00 76 1014.5
20260510023002 9 18 1.6 4.8 0.00 0.00 0.00 75 1014.4
20260510021509 9 354 0.0 3.2 0.00 0.00 0.00 74 1014.4
20260510020018 10 23 0.0 4.8 0.00 0.00 0.00 73 1014.5
20260510014510 10 33 1.6 6.4 0.00 0.00 0.00 72 1014.6
20260510013011 10 18 0.0 4.8 0.00 0.00 0.00 72 1014.7
20260510011550 10 13 3.2 6.4 0.00 0.00 0.00 71 1014.7
20260510010138 10 43 0.0 6.4 0.00 0.00 0.00 71 1014.7
20260510004506 11 13 1.6 3.2 0.00 0.00 0.00 70 1014.9
20260510003012 11 47 0.0 4.8 0.00 0.00 0.00 69 1014.9
20260510001547 11 13 1.6 3.2 0.00 0.00 0.00 69 1015.0
20260510000019 11 18 1.6 3.2 0.00 0.00 0.00 69 1015.0
20260509234559 11 3 0.0 4.8 0.00 0.00 0.00 69 1015.2
20260509233106 11 23 1.6 6.4 0.00 0.00 0.00 69 1015.1
20260509231605 11 2 1.6 4.8 0.00 0.00 0.00 68 1015.2
20260509230110 11 33 1.6 6.4 0.00 0.00 0.00 67 1015.2
20260509224601 12 5 1.6 4.8 0.00 0.00 0.00 67 1015.2
20260509223120 12 50 0.0 4.8 0.00 0.00 0.00 66 1015.1
20260509221618 12 18 1.6 6.4 0.00 0.00 0.00 65 1015.3
20260509220011 12 23 1.6 4.8 0.00 0.00 0.00 65 1015.3
20260509214626 13 18 0.0 3.2 0.00 0.00 0.00 63 1015.3
20260509213132 13 23 1.6 6.4 0.00 0.00 0.00 62 1015.2
20260509211623 13 52 1.6 6.4 0.00 0.00 0.00 61 1015.2
20260509210123 14 23 3.2 8.0 0.00 0.00 0.00 60 1015.1
20260509204610 14 18 4.8 9.7 0.00 0.00 0.00 59 1015.1
20260509203116 15 23 3.2 11.3 0.00 0.00 0.00 59 1015.2
20260509201606 15 33 4.8 9.7 0.00 0.00 0.00 58 1015.2
20260509200111 15 29 1.6 6.4 0.00 0.00 0.00 58 1015.2
20260509194556 15 48 3.2 6.4 0.00 0.00 0.00 56 1014.8
20260509193111 16 36 1.6 6.4 0.00 0.00 0.00 55 1014.8
20260509191546 16 39 1.6 6.4 0.00 0.00 0.00 53 1014.8
20260509190143 17 39 1.6 6.4 0.00 0.00 0.00 52 1014.7
20260509184503 17 44 0.0 3.2 0.00 0.00 0.00 51 1014.6
20260509183002 18 50 1.6 6.4 0.00 0.00 0.00 49 1014.6
20260509181508 18 71 1.6 8.0 0.00 0.00 0.00 47 1014.7
20260509180122 19 50 0.0 3.2 0.00 0.00 0.00 48 1014.6
20260509174616 19 71 0.0 4.8 0.00 0.00 0.00 48 1014.4
20260509173122 18 53 1.6 4.8 0.00 0.00 0.00 47 1014.4
20260509171629 19 67 1.6 6.4 0.00 0.00 0.00 46 1014.3
20260509170114 20 66 0.0 6.4 0.00 0.00 0.00 44 1014.4
20260509164602 20 81 0.0 6.4 0.00 0.00 0.00 46 1014.5
20260509163107 21 90 3.2 9.7 0.00 0.00 0.00 41 1014.5
20260509161554 22 137 1.6 4.8 0.00 0.00 0.00 40 1014.5
20260509154600 21 114 4.8 11.3 0.00 0.00 0.00 43 1014.6
20260509153058 20 111 0.0 9.7 0.00 0.00 0.00 42 1014.6
20260509151554 20 65 3.2 9.7 0.00 0.00 0.00 44 1014.8
20260509150105 20 60 1.6 8.0 0.00 0.00 0.00 44 1014.8
20260509144711 21 335 0.0 4.8 0.00 0.00 0.00 44 1014.9
20260509143112 22 46 1.6 12.9 0.00 0.00 0.00 38 1015.1
20260509141558 21 79 3.2 14.5 0.00 0.00 0.00 39 1015.2
20260509140148 21 119 4.8 11.3 0.00 0.00 0.00 43 1015.3
20260509134617 21 53 4.8 11.3 0.00 0.00 0.00 43 1015.3
20260509133100 21 143 3.2 12.9 0.00 0.00 0.00 43 1015.5
20260509131553 20 85 3.2 9.7 0.00 0.00 0.00 49 1015.8
20260509130105 20 67 4.8 16.1 0.00 0.00 0.00 46 1015.9
20260509124517 21 162 3.2 11.3 0.00 0.00 0.00 45 1016.1
20260509123012 21 55 4.8 11.3 0.00 0.00 0.00 48 1016.1
20260509121550 20 64 3.2 6.4 0.00 0.00 0.00 46 1016.3
20260509120002 20 59 1.6 12.9 0.00 0.00 0.00 47 1016.4
20260509114627 20 175 4.8 11.3 0.00 0.00 0.00 47 1016.4
20260509113126 21 5 1.6 11.3 0.00 0.00 0.00 44 1016.6
20260509111622 20 71 1.6 14.5 0.00 0.00 0.00 45 1016.7
20260509110113 20 93 6.4 12.9 0.00 0.00 0.00 46 1016.9
20260509104552 19 63 3.2 9.7 0.00 0.00 0.00 44 1017.0
20260509103140 20 92 4.8 9.7 0.00 0.00 0.00 47 1017.1
20260509101616 19 127 1.6 8.0 0.00 0.00 0.00 45 1017.1
20260509100006 20 9 4.8 12.9 0.00 0.00 0.00 47 1017.2
20260509094631 19 110 4.8 14.5 0.00 0.00 0.00 48 1017.2
20260509093129 18 84 3.2 11.3 0.00 0.00 0.00 47 1017.3